FALCON 9 DEB (49185 NORAD) Tracking and Keplerian Element Data

This shows tracking and keplerian element data for the satellite.

Feedback or suggestion? Click here.




ElementValue
Catalog49185
NameFALCON 9 DEB
Epoch Orbit309
Epoch Day275.82454625
Epoch Year2021
RAAN71.9302
Inclination69.9923
Eccentricity0.000931
Argument of Perigee144.9641
Mean Anonmoly215.2207
Mean Motion16.46358868
Decay Rate0.09728838
L11 49185U 21082BH 21275.82454625 .09728838 44540-5 19948-3 0 9994
L22 49185 69.9923 71.9302 0009310 144.9641 215.2207 16.46358868 3097

Live tracking and technical data element details for FALCON 9 DEB (NORAD 49185). FALCON 9 DEB can be tracked NOW for your location showing map with azimuth and elevation plus other details from your city location.

Track the satellite on the map from your city or location and see movement details for azimuth, elevation, latitude, longitude, range, height, and movement on the map or in text.







IsCatalogInMostPopularTable: catalog: 49185, numindb: 11
Update: records affected: 1



GetName: 49185 FALCON 9 DEB

Hit Count: updated at: Tue, 19 Oct 2021 09:15:33 GMT